Location: Unspecified
(42.7170°S, 0.0000°E)
Time: 23:12:41
(UTC+00:00)

Hubble Space Telescope - Visible Passes

Search period start: 19 May 2019 00:00
Search period end: 29 May 2019 00:00
Orbit: 536 x 540 km, 28.5° (Epoch: 18 May)

Date Brightness Start Highest point End Pass type
(mag) Time Alt. Az. Time Alt. Az. Time Alt. Az.
19 May 3.4 05:33:55 10° NNW 05:35:15 11° N 05:36:35 10° NNE visible
20 May 3.3 05:23:15 10° NNW 05:24:36 11° N 05:25:56 10° NNE visible
21 May 3.3 05:12:59 10° NNW 05:13:55 11° N 05:15:08 10° NNE visible
22 May 3.4 05:03:07 11° N 05:03:16 11° N 05:04:10 10° N visible
